Skip Navigation Links
NOAA logo - Click to go to the NOAA homepage
NOAA's National Weather Service
Alaska Aviation Weather Unit
  NWS logo - Click to go to the NWS homepage
Left Navbar Graphic     08 AKDT = 16 GMT

   
NOAA is celebrating 200 years of science, service, and stewardship. Visit the NOAA 200th celebration Web site to learn more.
USA.gov is the U.S. Government's official Web portal to all Federal, state and local government Web resources and services.
Facebook
NWS on Facebook

Important Change Regarding the AAWU Web Presence

 

Over the last several months, the AAWU has been working to navigate its webpages to a nationally supported server. Security, as well as other needs, have necessitated the change.  In the process, we have made an effort to enhance the functionality of our website, as well as some of our products. As of June 20, 2017, aawu.arh.noaa.gov will be discontinued. The new AAWU web address is weather.gov/aawu. It is now live and will run in-parallel with the old site until it is discontinued. Please send any feedback or questions regarding the new webpages to nws.ar.aawu.webauthors@noaa.gov.  Thank you for your patience during this time of transition.
AAWU Home :: Display TAF Add Bookmark
TAF CYDQ 291238Z 2913/3001 VRB03KT P6SM SKC
     FM291900 12010G20KT P6SM FEW100 RMK FCST BASED ON AUTO OBS.
      NXT FCST BY 291900Z=

METAR CYDQ 291000Z AUTO 00000KT 9SM CLR 08/05 A3010 RMK SLP202= METAR CYDQ 291100Z AUTO 00000KT 9SM CLR 07/04 A3010 RMK SLP204= METAR CYDQ 291200Z AUTO VRB02KT 9SM CLR 07/05 A3010 RMK SLP202= METAR CYDQ 291300Z AUTO 00000KT 9SM CLR 08/05 A3010 RMK SLP201= METAR CYDQ 291400Z AUTO VRB02KT 9SM CLR 10/07 A3010 RMK SLP201= METAR CYDQ 291500Z AUTO 08006KT 9SM CLR 13/07 A3008 RMK SLP193 DENSITY ALT 2200FT= METAR CYDQ 291600Z AUTO 11003KT 070V140 9SM CLR 16/07 A3007 RMK SLP191 DENSITY ALT 2600FT=
 Alaska TAF Map

NOAA's National Weather Service
Alaska Aviation Weather Unit
6930 Sand Lake Road
Anchorage, AK 99502-1845
Disclaimer
Credits
Glossary
Privacy Policy
About Us
Career Opportunities
Contact AAWU Internet Services Site last modified: April, 17th 2012